Location: Be?chatów
(51.3665°N, 19.3745°E)
Time: 23:02:36
(UTC+00:00)

CENTAUR R/B - Pass Details

Date: 19 May 2025
Orbit: 645 x 1537 km, 63.4° (Epoch: 16 June)

Event Time Altitude Azimuth Distance (km) Brightness Sun altitude
Rises 23:14:02 0° 315° (NW) 4,152 6.3 -18.2°
Reaches altitude 10° 23:16:41 10° 311° (NW) 3,294 5.7 -18.2°
Maximum altitude 23:24:43 58° 236° (SW) 1,651 3.4 -17.9°
Enters shadow 23:31:28 19° 166° (SSE) 2,995 4.5 -17.7°
